AWQ264 WIII-WSSS

Flight info

Callsign AWQ264
Flight time N/A
Altitude 36000
Route DOLTA G579 REPOV REPOV2B
Aircraft A320/M-SDE3FGHIRWY/LB1

Departure

Time 2026-05-04 12:08
Airport Soekarno-Hatta International Airport (WIII)

Arrival

Time N/A
Airport Singapore Changi Airport (WSSS)
Time Latitude Longitude Altitude Speed Heading
2026-05-04 11:47 -6.12028 106.65463 38 ft 0 kts 180°
2026-05-04 11:56 -6.12027 106.65463 38 ft 2 kts 180°
2026-05-04 11:56 -6.12010 106.65463 37 ft 2 kts 176°
2026-05-04 11:56 -6.11993 106.65461 35 ft 2 kts 171°
2026-05-04 11:57 -6.11976 106.65457 35 ft 2 kts 153°
2026-05-04 11:57 -6.11961 106.65447 37 ft 3 kts 120°
2026-05-04 11:57 -6.11953 106.65432 36 ft 3 kts 110°
2026-05-04 11:57 -6.11950 106.65417 36 ft 0 kts 89°
2026-05-04 12:00 -6.11950 106.65422 37 ft 3 kts 88°
2026-05-04 12:00 -6.11940 106.65455 38 ft 5 kts 69°
2026-05-04 12:00 -6.11929 106.65484 37 ft 4 kts 68°
2026-05-04 12:00 -6.11913 106.65524 38 ft 8 kts 68°
2026-05-04 12:01 -6.11889 106.65585 38 ft 8 kts 68°
2026-05-04 12:01 -6.11868 106.65629 37 ft 6 kts 51°
2026-05-04 12:02 -6.11598 106.65630 38 ft 11 kts 72°
2026-05-04 12:03 -6.11567 106.65710 36 ft 13 kts 68°
2026-05-04 12:03 -6.11531 106.65800 38 ft 15 kts 68°
2026-05-04 12:03 -6.11491 106.65901 38 ft 16 kts 69°
2026-05-04 12:03 -6.11448 106.66010 39 ft 17 kts 68°
2026-05-04 12:04 -6.11404 106.66120 39 ft 18 kts 68°
2026-05-04 12:04 -6.11357 106.66236 39 ft 18 kts 68°
2026-05-04 12:04 -6.11309 106.66356 37 ft 19 kts 68°
2026-05-04 12:04 -6.11265 106.66468 38 ft 17 kts 68°
2026-05-04 12:05 -6.11221 106.66586 37 ft 19 kts 70°
2026-05-04 12:05 -6.11175 106.66697 36 ft 14 kts 68°
2026-05-04 12:05 -6.11142 106.66779 39 ft 12 kts 68°
2026-05-04 12:05 -6.11111 106.66854 39 ft 11 kts 68°
2026-05-04 12:06 -6.11082 106.66926 39 ft 11 kts 68°
2026-05-04 12:06 -6.11041 106.66973 39 ft 8 kts 25°
2026-05-04 12:06 -6.10992 106.66974 39 ft 6 kts 344°
2026-05-04 12:06 -6.10953 106.66944 38 ft 9 kts 305°
2026-05-04 12:07 -6.10922 106.66887 39 ft 9 kts 291°
2026-05-04 12:07 -6.10924 106.66835 37 ft 5 kts 251°
2026-05-04 12:07 -6.10930 106.66818 38 ft 1 kts 249°
2026-05-04 12:07 -6.10932 106.66814 38 ft 1 kts 249°
2026-05-04 12:08 -6.10984 106.66686 39 ft 54 kts 248°
2026-05-04 12:08 -6.11218 106.66104 40 ft 120 kts 251°
2026-05-04 12:08 -6.11595 106.65162 44 ft 168 kts 248°
2026-05-04 12:08 -6.12029 106.64075 672 ft 161 kts 247°
2026-05-04 12:09 -6.12400 106.63023 1274 ft 164 kts 262°
2026-05-04 12:09 -6.12316 106.62261 1567 ft 168 kts 292°
2026-05-04 12:09 -6.11891 106.61169 2027 ft 169 kts 290°
2026-05-04 12:09 -6.11499 106.59980 2263 ft 190 kts 288°
2026-05-04 12:10 -6.11084 106.58658 2615 ft 207 kts 288°
2026-05-04 12:10 -6.10636 106.57211 2961 ft 226 kts 287°
2026-05-04 12:10 -6.10159 106.55649 3424 ft 242 kts 287°
2026-05-04 12:10 -6.09651 106.53973 3899 ft 259 kts 287°
2026-05-04 12:11 -6.09107 106.52183 4433 ft 275 kts 287°
2026-05-04 12:11 -6.08508 106.50334 5172 ft 280 kts 293°
2026-05-04 12:11 -6.07520 106.48642 5966 ft 283 kts 309°
2026-05-04 12:11 -6.06070 106.47246 6735 ft 286 kts 326°
2026-05-04 12:12 -6.04382 106.46184 7457 ft 289 kts 329°
2026-05-04 12:12 -6.02660 106.45121 8195 ft 292 kts 329°
2026-05-04 12:12 -6.00920 106.44037 8940 ft 296 kts 329°
2026-05-04 12:12 -5.99166 106.42941 9675 ft 299 kts 329°
2026-05-04 12:13 -5.97389 106.41828 10293 ft 305 kts 329°
2026-05-04 12:14 -5.82956 106.32782 13482 ft 371 kts 329°
2026-05-04 12:15 -5.80752 106.31404 14011 ft 375 kts 329°
2026-05-04 12:15 -5.78527 106.30013 14504 ft 378 kts 329°
2026-05-04 12:15 -5.76286 106.28609 15030 ft 381 kts 329°
2026-05-04 12:15 -5.74031 106.27196 15530 ft 384 kts 329°
2026-05-04 12:16 -5.71737 106.25806 16031 ft 387 kts 331°
2026-05-04 12:16 -5.69391 106.24459 16522 ft 390 kts 332°